Temperature
19 20 20 20 17 15 17 19 19 19 19 20 21 21 19 19 19 19 20 19 18 17 16 14 14 14 13 13 13 12 11 11 10 10 9 9 9 8 8 8 8 8 8 7 7 7 8 8 9
19 19 20 20 16 16 17 18 18 19 20 20 21 20 19 19 20 20 20 19 18 17 16 15 14 14 13 13 13 12 12 11 10 10 9 9 9 8 8 8 8 8 8 7 7 7 7 8 8
19 19 20 16 16 16 18 19 18 19 20 20 20 20 20 20 20 20 20 20 18 17 16 15 14 14 13 13 13 13 12 11 10 10 9 9 9 8 8 8 8 8 8 8 8 7 8 8 8
19 20 19 16 18 17 18 19 18 18 19 20 20 19 20 20 20 21 20 20 19 18 16 15 14 13 13 13 13 13 12 11 11 10 10 9 9 9 9 9 9 9 8 8 8 8 8 8 8
20 19 17 16 17 18 18 19 19 17 18 19 19 18 19 20 20 20 20 20 19 18 17 15 14 13 13 13 13 12 12 12 11 10 10 9 9 9 9 9 9 9 9 9 9 8 8 8 8
20 17 16 16 17 18 19 20 19 18 19 19 19 18 20 20 20 20 19 19 19 18 17 16 14 13 12 12 12 12 12 12 11 11 10 10 10 10 10 10 9 9 9 9 9 9 9 9 9
19 15 16 17 17 17 19 20 20 19 19 20 20 18 19 20 20 19 18 18 18 17 17 16 14 13 12 12 12 12 12 12 11 11 11 10 10 10 10 10 10 10 9 9 9 9 9 9 9
20 15 18 17 17 18 20 21 21 21 20 21 20 19 20 21 19 18 17 16 16 16 16 15 15 13 12 12 12 12 12 12 12 11 11 11 11 10 10 10 10 10 10 9 9 9 9 9 9
20 15 15 16 18 18 20 20 21 21 20 20 20 20 20 20 19 17 16 15 15 15 15 15 14 14 13 12 12 11 11 11 11 11 11 11 11 11 10 10 10 10 10 9 9 9 9 9 9
19 15 16 17 18 18 19 19 20 20 19 19 19 20 20 19 19 18 17 17 16 17 16 15 14 14 13 12 12 12 12 11 12 12 11 11 11 11 10 10 10 10 10 9 9 9 9 9 9
18 16 16 18 20 19 19 19 19 18 16 18 19 20 19 19 18 18 18 18 18 18 17 16 15 14 13 12 12 12 12 12 12 12 11 11 11 11 11 10 10 10 10 10 9 9 9 9 9
18 17 18 19 20 19 19 19 18 18 19 20 19 19 19 18 18 18 18 18 18 17 17 16 15 14 13 13 12 12 12 12 12 12 12 11 11 11 11 11 10 10 10 9 9 9 9 9 9
17 17 19 19 19 19 19 18 17 18 21 20 19 18 18 18 19 19 19 18 17 17 17 16 16 15 14 13 12 12 12 12 12 12 12 11 11 11 11 10 10 10 9 9 9 9 9 9 8
18 18 18 19 19 18 17 17 16 19 21 20 20 20 19 19 19 19 18 18 18 17 17 16 16 15 14 13 13 13 12 12 11 11 11 11 11 11 11 10 10 10 9 9 9 8 8 8 8
18 16 15 17 17 17 17 16 15 21 20 20 20 20 19 19 19 19 19 19 19 18 17 16 16 15 14 14 13 13 12 12 12 12 11 11 11 11 10 10 10 10 9 9 8 8 8 8 8
16 15 15 16 17 16 18 15 16 20 19 18 18 19 19 19 19 19 19 19 19 18 18 17 15 15 14 14 13 13 12 12 12 11 11 11 11 10 10 10 10 9 9 8 8 8 8 8 8
15 14 15 16 16 16 16 15 15 18 18 17 17 18 19 19 19 19 19 19 19 19 18 17 16 15 15 14 13 12 12 11 11 11 11 11 10 10 10 10 10 9 9 8 8 8 8 8 8
16 15 15 15 16 16 15 14 15 17 17 16 17 17 18 18 18 19 19 19 19 18 18 17 16 15 14 13 12 11 11 10 10 10 10 10 10 9 9 9 9 9 8 8 8 8 8 7 7
16 15 14 14 15 15 14 14 15 16 16 16 16 17 17 18 18 19 19 19 18 18 17 17 16 15 14 13 12 12 11 11 11 10 10 9 9 9 9 8 8 8 8 8 8 7 7 7 6
16 15 14 14 15 15 14 13 13 15 16 16 16 16 17 17 18 18 18 18 18 17 17 16 16 15 14 14 13 13 12 11 11 10 9 9 9 8 8 8 7 7 7 7 7 7 6 6 6
16 15 14 14 13 13 14 14 14 15 15 16 16 16 16 16 16 17 17 17 17 16 16 15 15 15 14 14 13 12 11 11 10 10 10 10 9 8 8 7 7 7 6 6 6 6 6 6 5
15 15 15 15 13 12 13 13 13 15 15 14 15 15 16 16 16 16 16 16 16 15 15 15 14 14 13 13 12 12 11 11 11 11 10 10 9 8 8 7 7 6 6 6 6 5 5 5 4
15 15 14 14 13 12 12 12 12 14 14 14 14 14 15 15 15 15 15 15 15 15 15 14 14 13 13 12 12 11 11 11 10 10 9 9 9 8 8 7 7 6 6 6 5 5 5 4 4
15 14 13 11 10 12 13 12 13 12 13 13 13 14 14 14 14 14 14 14 14 14 14 13 13 13 12 11 11 11 10 10 9 9 9 9 8 8 7 7 6 6 6 6 5 5 5 4 4
14 13 12 13 12 13 13 13 13 14 13 13 13 14 14 14 14 13 13 13 13 13 13 13 12 12 12 11 11 10 10 9 9 9 8 8 8 8 7 7 6 6 6 5 5 5 4 4 4
15 13 13 13 12 11 12 13 13 13 13 14 14 14 14 13 13 13 13 12 12 12 12 12 12 11 11 11 10 10 10 9 9 9 8 8 8 8 7 7 6 6 5 5 5 4 4 4 3
15 13 12 11 12 11 11 12 13 13 12 12 13 13 13 13 13 13 12 12 12 12 11 11 11 11 10 10 10 9 9 9 9 8 8 8 8 7 7 7 6 6 5 5 4 4 4 3 3
14 12 11 12 12 11 11 11 12 14 13 12 12 12 13 13 13 12 12 11 11 11 11 10 10 10 10 9 9 9 8 8 8 8 8 7 7 7 6 6 6 6 5 5 4 4 4 3 3
13 13 12 10 10 10 10 11 13 13 12 12 12 13 13 12 12 12 11 11 11 10 10 10 10 9 9 9 8 8 8 7 7 7 7 7 6 6 6 6 5 5 5 5 4 4 3 3 3
12 12 11 11 11 9 9 11 12 11 12 12 12 12 12 12 12 11 11 10 10 10 9 9 9 8 8 8 8 7 7 7 7 6 6 6 6 5 5 5 5 5 5 4 4 3 3 3 2
Wind_Speed
6 3 3 4 5 4 3 5 5 5 4 3 4 7 6 5 5 5 2 13 13 19 28 29 28 26 24 22 21 19 17 16 15 14 13 13 12 12 12 12 12 11 12 12 12 13 13 13 13
2 2 5 5 5 1 5 4 6 7 7 5 4 5 4 6 2 4 6 11 18 24 28 27 29 27 25 23 22 20 19 17 16 15 14 13 13 12 12 12 11 11 11 11 11 11 12 12 12
2 2 4 5 4 5 5 5 7 4 5 6 5 3 4 5 6 8 8 15 21 24 26 28 30 28 26 24 23 21 20 19 17 16 15 14 13 13 12 12 11 11 10 10 10 10 10 11 11
3 4 5 4 5 7 7 8 7 5 4 4 7 4 4 3 7 9 10 18 19 19 25 27 30 28 27 25 24 22 21 20 19 17 16 15 14 13 13 12 11 11 10 9 9 9 9 9 9
4 4 4 2 7 7 6 8 9 8 7 6 7 6 5 2 3 9 16 21 21 18 25 27 30 28 27 26 25 23 22 21 20 19 17 16 15 14 13 13 12 11 10 9 8 8 8 8 8
4 5 3 4 8 8 6 5 7 6 5 4 6 5 6 3 6 10 17 18 17 19 25 26 29 28 27 26 25 24 23 22 20 20 18 17 16 15 14 14 13 11 10 9 8 7 7 6 6
4 4 2 4 6 8 6 1 5 5 5 7 8 7 5 4 5 9 12 12 12 19 21 22 26 27 27 26 26 25 24 23 21 21 20 18 17 17 16 15 14 12 11 10 9 7 6 5 5
5 4 2 4 5 8 5 2 3 5 7 3 10 9 8 8 8 9 9 9 10 12 15 19 21 24 25 25 26 25 24 23 22 21 20 19 18 18 17 16 15 14 12 11 10 8 7 6 5
5 4 4 6 6 7 4 3 4 3 4 3 5 5 5 10 13 11 8 7 10 13 12 16 17 20 22 23 25 25 25 24 23 22 21 20 18 18 17 17 16 15 14 13 11 10 9 8 6
5 3 8 6 5 6 5 5 5 4 6 5 5 2 3 11 16 17 15 16 17 19 18 14 17 18 19 21 22 21 22 22 22 21 21 20 18 17 16 17 18 17 15 14 13 12 10 9 8
6 7 7 7 7 6 5 5 4 4 9 11 11 8 8 10 15 18 20 20 21 18 17 17 16 19 19 18 18 17 19 19 20 21 21 19 18 17 16 16 16 16 16 14 12 11 10 9 10
5 8 7 7 5 4 6 5 5 7 13 9 9 6 11 15 19 21 22 20 15 13 18 18 16 17 20 19 17 16 16 16 17 20 23 20 16 15 15 15 15 14 14 13 13 11 11 12 13
6 7 6 7 8 7 6 7 6 11 16 10 8 7 15 19 20 20 19 16 14 15 18 17 16 16 18 17 17 17 17 18 18 20 22 22 17 13 14 15 16 16 15 15 14 13 13 13 14
5 5 9 10 11 6 7 6 4 13 9 8 8 9 14 19 21 17 15 16 19 20 19 17 19 18 17 16 14 16 19 19 19 21 23 24 21 17 15 14 15 17 18 17 16 15 13 13 13
4 7 11 7 4 2 1 7 8 13 8 10 11 8 10 16 16 19 20 21 22 20 17 18 19 16 17 16 17 18 20 21 21 22 24 25 24 21 18 14 14 17 19 18 16 15 13 10 10
4 4 6 8 2 1 1 10 11 9 8 10 9 7 5 7 12 17 17 18 18 16 16 18 17 17 18 16 16 17 20 21 22 23 24 26 26 24 20 15 14 19 18 16 11 8 6 8 8
3 3 6 9 3 2 3 11 11 5 5 6 7 7 7 5 4 8 11 14 15 16 15 16 17 18 18 15 14 15 16 19 21 22 23 25 26 26 23 18 17 18 15 14 11 8 7 8 9
4 6 6 7 6 3 7 13 17 8 1 2 5 7 8 9 8 7 6 9 11 12 13 14 16 16 14 11 8 8 10 11 17 20 22 23 25 26 24 18 17 17 10 10 9 9 8 7 8
5 6 9 9 6 5 9 13 15 8 3 4 5 7 9 8 9 10 5 1 5 8 11 13 15 14 11 8 10 11 14 11 9 14 20 22 24 24 23 17 14 14 12 13 13 10 10 9 4
6 7 8 8 5 4 8 10 8 1 5 5 5 6 8 9 11 12 10 5 0 4 8 10 13 12 13 14 12 8 8 7 8 8 14 20 22 23 23 18 12 12 12 13 13 12 8 7 7
5 6 7 6 8 6 6 8 6 5 4 4 4 4 5 7 9 10 10 8 4 2 5 8 10 11 12 12 6 3 2 2 4 8 9 14 21 23 23 21 17 13 14 15 16 15 14 12 9
6 5 4 4 5 6 4 3 6 1 1 2 2 4 5 6 7 7 8 9 7 5 3 3 5 7 8 9 8 10 11 12 13 11 10 10 17 20 23 21 20 16 15 17 17 16 15 14 13
6 2 3 2 1 4 2 3 8 2 5 5 3 0 3 4 6 7 7 7 8 7 5 3 1 3 5 7 10 11 13 14 10 7 9 11 11 16 20 21 18 17 17 18 17 16 17 16 17
1 5 5 5 4 3 3 4 6 5 9 7 4 2 1 2 4 5 6 7 7 8 7 6 4 2 3 6 8 11 14 14 12 11 11 11 10 11 15 17 17 18 18 19 19 18 19 18 18
5 6 5 6 4 5 4 3 8 7 6 9 9 6 2 0 1 3 6 7 7 8 7 6 5 4 3 5 8 10 13 13 14 14 12 12 10 11 13 15 17 18 18 18 17 18 20 20 18
3 6 4 3 4 6 7 5 7 5 4 7 6 5 3 2 1 1 3 3 5 7 7 6 6 6 5 5 7 8 10 9 11 12 12 12 12 12 12 14 17 18 18 18 18 18 19 18 21
3 4 6 5 2 4 7 7 5 4 6 5 4 3 3 3 2 1 2 3 4 6 6 6 6 7 7 7 7 8 8 9 11 12 10 11 12 11 11 13 15 17 18 18 18 17 19 19 20
3 6 5 3 2 5 7 7 5 4 4 4 5 5 5 3 2 2 3 3 4 5 5 6 6 6 7 7 7 7 8 9 10 9 11 11 12 12 11 12 13 15 16 17 17 17 18 19 19
5 4 4 4 5 4 5 7 5 6 6 6 6 6 5 3 3 3 3 4 5 6 6 6 7 7 7 8 7 8 9 9 8 9 11 11 11 11 11 12 13 14 15 15 16 18 17 20 20
7 8 8 4 5 5 4 8 5 5 4 4 3 3 3 3 3 3 3 5 6 7 7 7 7 7 8 8 8 8 9 9 9 10 11 10 11 11 11 11 12 13 14 14 16 18 18 19 20
Wind_Direction
312 3 67 57 55 49 274 262 186 182 192 195 146 128 146 186 198 226 153 151 148 163 172 175 174 173 172 170 167 165 162 160 156 151 146 141 135 128 122 116 110 105 99 95 91 87 83 80 78
340 61 58 63 89 54 276 256 182 193 187 154 129 122 143 221 203 155 149 170 159 165 172 175 176 175 174 172 170 169 167 165 162 158 155 150 145 138 133 126 121 115 109 103 98 93 88 83 80
327 88 85 79 135 190 230 232 209 218 190 164 156 157 182 214 192 191 192 164 160 168 173 176 178 177 176 174 173 172 171 169 167 165 162 159 154 149 143 138 133 126 120 113 106 100 93 88 84
54 53 60 83 238 231 217 223 211 180 222 206 158 181 230 218 190 189 164 160 162 170 174 179 180 180 179 178 176 176 175 173 172 170 168 166 162 157 153 148 143 138 132 125 117 109 101 95 89
62 76 61 314 267 265 249 220 189 187 202 207 178 193 235 285 173 154 156 164 168 171 175 182 183 183 182 181 180 179 178 178 176 175 173 172 168 164 161 158 155 151 145 139 132 123 114 104 97
57 68 82 270 279 289 285 219 175 202 217 208 186 200 242 328 161 165 163 169 170 171 175 184 186 187 186 185 184 183 182 182 181 180 179 178 175 172 171 169 166 163 159 154 148 140 131 121 111
108 102 193 247 282 298 297 206 183 204 218 212 187 191 266 266 206 157 157 158 165 172 177 186 190 190 190 190 189 187 187 186 185 185 184 183 182 181 179 178 176 174 172 169 165 160 154 145 132
122 105 253 262 267 280 289 290 237 215 236 210 158 179 236 219 166 136 136 148 164 175 183 189 192 191 192 193 193 192 191 191 190 190 189 188 188 189 187 186 185 184 183 182 181 179 178 174 163
89 88 241 244 242 264 280 290 279 291 255 248 199 212 248 144 138 136 143 163 177 187 192 191 194 191 191 192 196 196 196 195 195 194 194 193 192 193 193 189 193 193 193 193 194 194 195 196 195
98 173 234 227 220 247 265 249 265 282 267 261 261 305 93 142 159 170 179 185 190 194 195 194 194 191 188 193 198 197 197 198 196 195 194 192 189 192 193 195 201 202 202 203 204 206 207 206 213
171 203 235 248 246 239 257 261 251 246 263 235 231 216 160 169 178 187 194 194 197 195 194 196 195 192 190 193 195 196 195 196 195 193 191 188 188 193 199 202 210 210 208 207 211 215 209 211 217
229 242 237 254 260 250 250 258 267 237 246 240 229 191 175 185 192 198 201 204 199 192 198 197 194 193 194 194 195 195 195 195 195 194 191 186 188 195 201 206 212 211 206 203 211 217 220 225 228
248 262 275 273 282 260 255 253 263 264 262 272 259 192 191 198 205 209 209 207 199 200 200 197 195 196 195 196 198 199 200 200 198 196 195 193 193 199 204 210 212 213 210 207 211 220 226 232 235
269 286 295 286 276 254 239 263 225 268 285 307 282 230 210 209 212 212 213 212 209 209 204 197 197 198 195 199 202 204 204 202 200 201 202 200 200 201 203 209 212 214 213 213 214 218 223 230 232
311 321 318 299 293 288 184 291 237 256 311 311 301 279 234 223 217 215 215 214 212 211 205 199 199 197 198 201 203 205 204 203 206 208 206 206 206 205 205 208 213 216 216 216 218 223 226 231 232
1 2 318 302 321 284 261 275 262 278 310 308 316 323 300 246 226 226 223 220 216 211 206 204 202 199 202 204 203 206 205 206 210 210 209 210 210 208 207 211 216 215 212 211 212 214 218 229 229
19 319 283 298 283 223 243 269 280 310 305 314 336 352 358 346 295 250 234 224 217 210 206 203 203 202 203 204 203 205 205 208 212 211 212 212 212 211 210 215 217 210 209 212 218 215 211 223 229
270 280 276 278 290 271 262 269 289 310 298 345 7 17 20 17 345 305 255 229 214 207 204 204 205 207 201 196 196 201 209 213 212 213 215 211 212 211 212 217 214 207 208 215 217 219 214 221 224
237 251 274 270 282 300 271 280 292 307 103 89 54 35 29 12 352 4 358 254 195 196 199 202 204 206 194 192 200 207 217 216 214 216 215 212 212 210 212 219 213 209 216 220 216 217 221 226 196
240 274 283 294 328 305 291 296 304 345 131 134 95 52 35 22 14 11 15 28 169 212 212 209 208 203 200 207 208 209 215 218 218 218 217 215 215 214 215 218 217 212 218 222 218 212 220 222 191
266 247 262 286 326 347 354 344 359 28 67 72 55 45 35 32 21 9 10 13 12 307 237 223 218 211 209 207 196 195 191 252 223 221 223 219 217 217 219 220 220 216 216 225 222 215 216 226 211
270 256 247 301 357 312 24 310 287 272 85 85 52 36 36 27 24 18 13 10 2 336 310 258 233 219 213 199 198 203 214 227 230 228 227 222 218 220 221 223 222 221 221 226 224 219 219 219 226
239 308 283 264 160 317 314 197 280 245 206 211 213 94 51 36 32 22 12 6 5 1 1 347 304 230 214 205 209 215 230 239 244 236 233 232 226 224 224 224 225 226 226 228 226 222 218 219 226
6 23 40 49 67 321 255 181 277 218 205 193 197 193 97 44 29 18 10 15 9 8 12 12 11 316 234 217 220 224 235 243 249 247 243 243 238 233 229 227 228 229 230 230 228 226 222 223 225
68 57 10 352 3 270 288 234 255 257 201 169 172 181 190 104 20 6 15 14 6 5 2 1 359 329 288 241 235 234 239 244 247 251 251 250 250 245 237 231 233 234 234 233 229 227 228 226 226
184 137 153 246 265 292 318 262 273 311 101 120 142 161 185 228 260 331 355 0 351 352 354 350 340 321 308 280 261 252 247 248 253 254 253 254 255 253 245 235 237 237 236 235 231 231 231 230 230
158 165 170 147 272 277 287 295 319 33 78 106 136 162 200 230 238 291 333 350 347 345 341 333 324 314 308 296 285 276 264 254 256 259 258 260 260 261 253 244 242 241 239 236 233 235 233 232 232
148 147 105 138 233 277 292 288 234 198 182 182 192 209 227 248 279 293 321 335 335 331 328 334 328 311 304 303 293 285 279 269 264 267 266 264 264 263 262 257 251 248 244 240 237 239 237 235 234
161 178 160 150 166 184 269 275 232 193 191 194 213 223 233 249 264 286 311 321 326 329 330 330 328 323 316 310 302 297 291 287 281 273 271 270 270 269 266 264 260 255 251 245 241 241 238 237 239
187 188 155 168 229 195 209 268 262 166 175 186 215 254 272 278 293 308 321 327 328 326 323 321 318 314 308 305 306 304 300 299 293 286 282 280 277 274 270 268 266 262 258 251 245 245 242 240 240
Height
1547 1548 1550 1552 1555 1564 1564 1555 1550 1549 1547 1545 1545 1545 1547 1549 1552 1554 1548 1547 1547 1549 1551 1554 1556 1559 1561 1562 1563 1564 1565 1565 1566 1566 1566 1566 1566 1566 1566 1565 1565 1564 1564 1563 1562 1561 1560 1559 1559
1547 1549 1551 1551 1561 1571 1566 1553 1549 1544 1543 1543 1544 1544 1545 1545 1545 1545 1544 1545 1546 1547 1549 1551 1554 1557 1559 1560 1562 1563 1563 1564 1565 1565 1565 1566 1566 1565 1565 1565 1564 1564 1563 1563 1562 1561 1561 1560 1559
1548 1549 1551 1553 1561 1567 1559 1550 1546 1542 1542 1542 1542 1543 1544 1543 1542 1543 1543 1544 1544 1546 1548 1550 1552 1554 1556 1558 1560 1561 1562 1562 1563 1564 1564 1564 1565 1565 1564 1564 1564 1563 1563 1563 1562 1562 1561 1560 1560
1549 1550 1551 1557 1558 1554 1549 1545 1543 1543 1542 1541 1541 1542 1541 1541 1540 1541 1541 1542 1543 1544 1546 1548 1550 1552 1554 1556 1558 1559 1560 1561 1562 1562 1563 1563 1563 1564 1563 1563 1563 1563 1563 1563 1562 1562 1561 1561 1560
1549 1549 1554 1560 1556 1548 1543 1540 1541 1541 1540 1539 1539 1538 1538 1537 1537 1538 1539 1540 1541 1542 1544 1546 1548 1550 1552 1554 1556 1557 1558 1559 1560 1561 1561 1562 1562 1563 1563 1563 1563 1563 1563 1563 1562 1562 1561 1561 1560
1549 1550 1561 1564 1556 1546 1541 1538 1539 1539 1538 1538 1538 1537 1535 1534 1534 1535 1537 1538 1540 1541 1542 1544 1546 1548 1550 1552 1554 1555 1556 1558 1559 1559 1560 1561 1561 1561 1562 1562 1562 1562 1562 1562 1562 1562 1561 1561 1560
1549 1553 1559 1557 1555 1549 1541 1538 1539 1537 1536 1536 1535 1535 1532 1531 1532 1533 1535 1537 1538 1540 1541 1542 1544 1546 1548 1550 1551 1553 1554 1556 1557 1558 1559 1559 1560 1560 1560 1561 1561 1561 1561 1561 1561 1561 1561 1560 1560
1548 1552 1554 1555 1553 1548 1540 1539 1538 1536 1534 1534 1533 1531 1529 1529 1530 1531 1533 1534 1536 1537 1539 1540 1541 1543 1545 1547 1549 1551 1552 1554 1555 1556 1557 1557 1558 1559 1559 1559 1560 1560 1560 1560 1560 1560 1560 1560 1559
1547 1555 1558 1553 1549 1544 1539 1538 1536 1535 1533 1531 1530 1528 1527 1527 1527 1528 1530 1531 1532 1534 1535 1537 1539 1540 1542 1544 1546 1548 1550 1551 1552 1553 1554 1555 1556 1557 1558 1558 1558 1558 1559 1559 1559 1559 1559 1558 1558
1547 1556 1552 1544 1542 1540 1537 1536 1534 1532 1530 1528 1526 1525 1524 1524 1524 1524 1525 1526 1527 1528 1530 1533 1535 1537 1539 1541 1543 1544 1546 1548 1549 1551 1552 1553 1554 1555 1556 1556 1556 1557 1557 1557 1557 1557 1557 1557 1557
1544 1547 1542 1539 1538 1537 1535 1533 1532 1530 1527 1523 1522 1521 1520 1520 1520 1521 1521 1522 1523 1525 1527 1528 1531 1533 1535 1537 1539 1541 1543 1544 1546 1547 1549 1550 1551 1552 1553 1553 1554 1554 1555 1555 1555 1555 1555 1555 1555
1542 1539 1537 1535 1535 1534 1532 1530 1529 1526 1521 1520 1520 1519 1517 1517 1516 1516 1517 1518 1520 1521 1522 1524 1527 1529 1531 1533 1535 1537 1539 1540 1542 1544 1546 1547 1548 1549 1550 1551 1551 1552 1552 1552 1553 1553 1552 1552 1552
1540 1537 1535 1533 1532 1531 1529 1527 1526 1521 1517 1516 1515 1514 1513 1512 1511 1512 1513 1514 1516 1516 1518 1520 1522 1524 1527 1529 1531 1533 1534 1536 1538 1540 1542 1543 1544 1546 1547 1548 1549 1549 1549 1550 1550 1550 1550 1549 1549
1538 1535 1533 1529 1527 1525 1525 1523 1524 1516 1514 1513 1511 1510 1508 1507 1506 1507 1508 1508 1510 1511 1513 1515 1517 1520 1522 1524 1526 1527 1530 1532 1534 1536 1537 1539 1541 1542 1543 1544 1545 1546 1546 1547 1547 1547 1546 1546 1546
1537 1536 1532 1526 1524 1523 1524 1524 1519 1513 1513 1510 1508 1505 1503 1502 1502 1502 1502 1503 1505 1507 1509 1511 1513 1515 1517 1519 1521 1523 1525 1527 1529 1530 1533 1535 1536 1537 1539 1540 1540 1542 1543 1543 1543 1543 1542 1542 1541
1537 1539 1540 1528 1524 1523 1526 1527 1514 1513 1511 1508 1505 1502 1499 1498 1498 1498 1499 1500 1501 1503 1505 1507 1509 1510 1512 1514 1516 1518 1519 1521 1523 1525 1527 1529 1531 1532 1533 1534 1535 1537 1538 1538 1538 1538 1537 1537 1536
1542 1546 1542 1534 1524 1524 1525 1523 1510 1511 1510 1507 1504 1501 1498 1496 1496 1495 1495 1496 1497 1499 1501 1504 1505 1506 1508 1510 1512 1513 1515 1516 1517 1519 1520 1522 1524 1526 1527 1528 1529 1532 1532 1532 1532 1532 1531 1531 1531
1545 1544 1541 1538 1527 1525 1526 1521 1509 1508 1508 1507 1505 1502 1499 1497 1496 1495 1494 1494 1495 1496 1498 1500 1502 1503 1505 1507 1509 1509 1510 1510 1511 1512 1513 1515 1517 1519 1520 1521 1522 1524 1524 1524 1524 1524 1524 1524 1525
1538 1540 1541 1534 1525 1525 1523 1519 1510 1506 1507 1507 1505 1503 1501 1499 1498 1496 1494 1493 1493 1494 1495 1497 1498 1500 1501 1502 1503 1504 1503 1504 1505 1506 1507 1508 1510 1511 1512 1513 1514 1515 1515 1516 1517 1517 1517 1516 1518
1536 1538 1538 1531 1525 1525 1523 1519 1510 1505 1507 1507 1506 1505 1503 1501 1499 1497 1496 1495 1494 1494 1494 1494 1495 1496 1497 1498 1499 1500 1500 1500 1501 1502 1502 1502 1503 1504 1504 1505 1505 1506 1507 1507 1508 1508 1508 1508 1510
1534 1535 1534 1532 1529 1524 1524 1520 1514 1510 1509 1509 1508 1507 1505 1503 1501 1499 1497 1496 1495 1494 1493 1493 1493 1493 1494 1495 1496 1496 1496 1495 1495 1495 1495 1496 1496 1496 1496 1496 1496 1496 1497 1496 1497 1498 1499 1498 1499
1536 1528 1529 1529 1534 1537 1532 1537 1522 1514 1512 1511 1509 1508 1507 1505 1503 1501 1499 1497 1495 1494 1492 1491 1491 1491 1491 1492 1492 1491 1490 1488 1488 1489 1488 1489 1489 1488 1487 1487 1487 1486 1486 1485 1486 1487 1487 1488 1487
1528 1526 1528 1528 1532 1538 1534 1537 1527 1515 1515 1512 1510 1509 1508 1506 1505 1503 1500 1498 1496 1495 1493 1491 1490 1489 1489 1489 1488 1487 1486 1484 1483 1483 1481 1480 1480 1479 1478 1477 1477 1476 1475 1474 1475 1475 1475 1475 1475
1526 1528 1531 1536 1540 1541 1530 1536 1527 1517 1510 1509 1510 1509 1509 1507 1506 1504 1502 1500 1498 1495 1493 1491 1490 1488 1487 1486 1485 1484 1482 1480 1478 1476 1474 1473 1471 1470 1469 1468 1467 1465 1464 1463 1463 1463 1463 1462 1462
1528 1537 1546 1542 1547 1540 1529 1529 1522 1507 1502 1504 1507 1509 1509 1508 1507 1505 1503 1500 1498 1496 1494 1492 1490 1488 1487 1485 1483 1481 1479 1476 1473 1471 1468 1466 1463 1461 1459 1459 1457 1455 1454 1453 1452 1451 1450 1450 1449
1528 1535 1547 1550 1552 1545 1531 1528 1516 1506 1502 1504 1507 1509 1509 1508 1506 1505 1503 1501 1499 1497 1495 1492 1490 1488 1486 1483 1481 1478 1475 1472 1469 1466 1463 1459 1456 1453 1451 1449 1446 1444 1443 1442 1441 1439 1438 1438 1436
1528 1533 1535 1546 1547 1548 1540 1527 1515 1508 1507 1508 1509 1509 1508 1507 1506 1504 1503 1501 1499 1496 1494 1492 1489 1486 1484 1481 1478 1474 1471 1468 1464 1461 1457 1453 1450 1447 1444 1441 1437 1435 1433 1431 1430 1427 1426 1425 1424
1525 1530 1540 1543 1548 1552 1543 1532 1521 1511 1510 1510 1509 1508 1507 1506 1505 1503 1502 1500 1498 1495 1493 1490 1487 1484 1480 1477 1473 1470 1466 1463 1459 1455 1451 1447 1443 1439 1436 1432 1429 1425 1423 1421 1419 1416 1415 1413 1411
1529 1530 1533 1542 1547 1551 1550 1535 1510 1507 1507 1507 1507 1506 1505 1504 1503 1502 1501 1498 1496 1493 1490 1487 1483 1480 1476 1472 1468 1464 1460 1457 1452 1448 1444 1440 1436 1432 1427 1423 1419 1416 1413 1410 1407 1404 1403 1401 1399
1523 1525 1531 1539 1541 1544 1548 1533 1505 1505 1504 1504 1504 1504 1504 1503 1502 1500 1499 1496 1494 1490 1487 1483 1479 1475 1471 1467 1463 1459 1455 1450 1446 1441 1437 1433 1428 1424 1419 1415 1410 1406 1403 1400 1396 1393 1391 1389 1387